Location: Saint-Palais-sur-Mer
(45.6429°N, 1.0859°W)
Time: 00:14:13
(UTC+01:00)

Tiros 1 despin weight - Pass Details

Date: 10 February 2026
Orbit: 556 x 593 km, 48.2° (Epoch: 13 March)

Event Time Altitude Azimuth Distance (km) Brightness Sun altitude
Rises 22:47:22 0° 285° (WNW) 2,739 ? -45.2°
Enters shadow 22:47:24 - 285° (WNW) 2,721 ? -45.3°
Reaches altitude 10° 22:49:37 10° 287° (WNW) 1,846 - -45.6°
Maximum altitude 22:53:49 73° 12° (NNE) 591 - -46.2°
Drops below altitude 10° 22:58:05 10° 98° (E) 1,862 - -46.8°
Sets 23:00:21 0° 101° (E) 2,765 - -47.1°
